Year,Month,Day,Hour,Minute,Value (Times are PST for barometer in hPa)
2015,02,06,00,00,987.96
2015,02,06,00,01,988.04
2015,02,06,00,02,988.05
2015,02,06,00,03,988.05
2015,02,06,00,04,987.94
2015,02,06,00,05,987.89
2015,02,06,00,06,988.02
2015,02,06,00,07,988.05
2015,02,06,00,08,988.07
2015,02,06,00,09,987.98
2015,02,06,00,10,987.97
2015,02,06,00,11,988.00
2015,02,06,00,12,987.96
2015,02,06,00,13,987.79
2015,02,06,00,14,987.85
2015,02,06,00,15,987.85
2015,02,06,00,16,987.89
2015,02,06,00,17,987.83
2015,02,06,00,18,987.83
2015,02,06,00,19,987.98
2015,02,06,00,20,987.87
2015,02,06,00,21,987.84
2015,02,06,00,22,987.76
2015,02,06,00,23,987.74
2015,02,06,00,24,987.71
2015,02,06,00,25,987.94
2015,02,06,00,26,987.80
2015,02,06,00,27,987.87
2015,02,06,00,28,987.73
2015,02,06,00,29,987.84
2015,02,06,00,30,987.82
2015,02,06,00,31,987.76
2015,02,06,00,32,987.77
2015,02,06,00,33,987.67
2015,02,06,00,34,987.66
2015,02,06,00,35,987.70
2015,02,06,00,36,987.79
2015,02,06,00,37,987.70
2015,02,06,00,38,987.70
2015,02,06,00,39,987.66
2015,02,06,00,40,987.72
2015,02,06,00,41,987.79
2015,02,06,00,42,987.75
2015,02,06,00,43,987.72
2015,02,06,00,44,987.71
2015,02,06,00,45,987.79
2015,02,06,00,46,987.83
2015,02,06,00,47,987.79
2015,02,06,00,48,987.75
2015,02,06,00,49,987.77
2015,02,06,00,50,987.70
2015,02,06,00,51,987.62
2015,02,06,00,52,987.69
2015,02,06,00,53,987.77
2015,02,06,00,54,987.83
2015,02,06,00,55,987.57
2015,02,06,00,56,987.70
2015,02,06,00,57,987.74
2015,02,06,00,58,987.66
2015,02,06,00,59,987.66
2015,02,06,01,00,987.55
2015,02,06,01,01,987.56
2015,02,06,01,02,987.70
2015,02,06,01,03,987.60
2015,02,06,01,04,987.63
2015,02,06,01,05,987.56
2015,02,06,01,06,987.56
2015,02,06,01,07,987.60
2015,02,06,01,08,987.58
2015,02,06,01,09,987.65
2015,02,06,01,10,987.73
2015,02,06,01,11,987.77
2015,02,06,01,12,987.78
2015,02,06,01,13,987.75
2015,02,06,01,14,987.74
2015,02,06,01,15,987.64
2015,02,06,01,16,987.74
2015,02,06,01,17,987.59
2015,02,06,01,18,987.56
2015,02,06,01,19,987.62
2015,02,06,01,20,987.72
2015,02,06,01,21,987.64
2015,02,06,01,22,987.48
2015,02,06,01,23,987.46
2015,02,06,01,24,987.61
2015,02,06,01,25,987.62
2015,02,06,01,26,987.53
2015,02,06,01,27,987.56
2015,02,06,01,28,987.73
2015,02,06,01,29,987.80
2015,02,06,01,30,987.73
2015,02,06,01,31,987.73
2015,02,06,01,32,987.79
2015,02,06,01,33,987.86
2015,02,06,01,34,987.90
2015,02,06,01,35,987.94
2015,02,06,01,36,988.03
2015,02,06,01,37,987.97
2015,02,06,01,38,987.84
2015,02,06,01,39,987.87
2015,02,06,01,40,987.77
2015,02,06,01,41,987.72
2015,02,06,01,42,987.73
2015,02,06,01,43,987.80
2015,02,06,01,44,987.79
2015,02,06,01,45,987.72
2015,02,06,01,46,987.77
2015,02,06,01,47,987.78
2015,02,06,01,48,987.72
2015,02,06,01,49,987.85
2015,02,06,01,50,987.80
2015,02,06,01,51,987.73
2015,02,06,01,52,987.79
2015,02,06,01,53,987.60
2015,02,06,01,54,987.67
2015,02,06,01,55,987.77
2015,02,06,01,56,987.80
2015,02,06,01,57,987.76
2015,02,06,01,58,987.72
2015,02,06,01,59,987.73
2015,02,06,02,00,987.74
2015,02,06,02,01,987.77
2015,02,06,02,02,987.80
2015,02,06,02,03,987.79
2015,02,06,02,04,987.83
2015,02,06,02,05,987.95
2015,02,06,02,06,987.96
2015,02,06,02,07,987.89
2015,02,06,02,08,987.88
2015,02,06,02,09,987.88
2015,02,06,02,10,987.90
2015,02,06,02,11,987.91
2015,02,06,02,12,987.97
2015,02,06,02,13,987.92
2015,02,06,02,14,987.99
2015,02,06,02,15,987.97
2015,02,06,02,16,987.89
2015,02,06,02,17,987.85
2015,02,06,02,18,987.74
2015,02,06,02,19,987.68
2015,02,06,02,20,987.84
2015,02,06,02,21,987.90
2015,02,06,02,22,987.86
2015,02,06,02,23,987.89
2015,02,06,02,24,987.91
2015,02,06,02,25,987.89
2015,02,06,02,26,987.96
2015,02,06,02,27,988.04
2015,02,06,02,28,987.94
2015,02,06,02,29,987.94
2015,02,06,02,30,988.00
2015,02,06,02,31,988.01
2015,02,06,02,32,987.96
2015,02,06,02,33,987.92
2015,02,06,02,34,987.94
2015,02,06,02,35,987.86
2015,02,06,02,36,987.93
2015,02,06,02,37,987.97
2015,02,06,02,38,987.98
2015,02,06,02,39,987.98
2015,02,06,02,40,988.04
2015,02,06,02,41,988.02
2015,02,06,02,42,987.93
2015,02,06,02,43,988.05
2015,02,06,02,44,988.06
2015,02,06,02,45,987.84
2015,02,06,02,46,987.86
2015,02,06,02,47,987.83
2015,02,06,02,48,987.81
2015,02,06,02,49,987.81
2015,02,06,02,50,987.81
2015,02,06,02,51,987.81
2015,02,06,02,52,987.81
2015,02,06,02,53,987.73
2015,02,06,02,54,987.65
2015,02,06,02,55,987.64
2015,02,06,02,56,987.64
2015,02,06,02,57,987.62
2015,02,06,02,58,987.63
2015,02,06,02,59,987.62
2015,02,06,03,00,987.77
2015,02,06,03,01,987.83
2015,02,06,03,02,987.74
2015,02,06,03,06,987.64
2015,02,06,03,07,987.61
2015,02,06,03,08,987.67
2015,02,06,03,09,987.67
2015,02,06,03,10,987.67
2015,02,06,03,11,987.71
2015,02,06,03,12,987.58
2015,02,06,03,13,987.61
2015,02,06,03,14,987.64
2015,02,06,03,15,987.71
2015,02,06,03,16,987.71
2015,02,06,03,17,987.52
2015,02,06,03,18,987.54
2015,02,06,03,19,987.61
2015,02,06,03,20,987.54
2015,02,06,03,21,987.57
2015,02,06,03,22,987.44
2015,02,06,03,23,987.56
2015,02,06,03,24,987.61
2015,02,06,03,25,987.47
2015,02,06,03,26,987.51
2015,02,06,03,27,987.54
2015,02,06,03,28,987.54
2015,02,06,03,29,987.45
2015,02,06,03,30,987.51
2015,02,06,03,31,987.40
2015,02,06,03,32,987.44
2015,02,06,03,33,987.44
2015,02,06,03,34,987.40
2015,02,06,03,35,987.30
2015,02,06,03,36,987.30
2015,02,06,03,37,987.34
2015,02,06,03,38,987.37
2015,02,06,03,39,987.28
2015,02,06,03,40,987.23
2015,02,06,03,41,987.20
2015,02,06,03,42,987.17
2015,02,06,03,43,987.13
2015,02,06,03,44,987.29
2015,02,06,03,45,987.37
2015,02,06,03,46,987.28
2015,02,06,03,47,987.34
2015,02,06,03,48,987.21
2015,02,06,03,49,987.23
2015,02,06,03,50,987.27
2015,02,06,03,51,987.36
2015,02,06,03,52,987.21
2015,02,06,03,53,987.27
2015,02,06,03,54,987.27
2015,02,06,03,55,987.17
2015,02,06,03,56,987.20
2015,02,06,03,57,987.13
2015,02,06,03,58,987.06
2015,02,06,03,59,987.00
2015,02,06,04,00,986.96
2015,02,06,04,01,986.96
2015,02,06,04,02,986.93
2015,02,06,04,03,987.05
2015,02,06,04,04,987.00
2015,02,06,04,05,987.03
2015,02,06,04,06,987.03
2015,02,06,04,07,986.96
2015,02,06,04,08,986.90
2015,02,06,04,09,986.79
2015,02,06,04,10,986.83
2015,02,06,04,11,986.79
2015,02,06,04,12,986.63
2015,02,06,04,13,986.66
2015,02,06,04,14,986.57
2015,02,06,04,15,986.59
2015,02,06,04,16,986.59
2015,02,06,04,17,986.59
2015,02,06,04,18,986.49
2015,02,06,04,19,986.49
2015,02,06,04,20,986.46
2015,02,06,04,21,986.46
2015,02,06,04,22,986.46
2015,02,06,04,23,986.49
2015,02,06,04,24,986.46
2015,02,06,04,25,986.52
2015,02,06,04,26,986.46
2015,02,06,04,27,986.42
2015,02,06,04,28,986.39
2015,02,06,04,29,986.39
2015,02,06,04,30,986.42
2015,02,06,04,31,986.49
2015,02,06,04,32,986.42
2015,02,06,04,33,986.42
2015,02,06,04,34,986.33
2015,02,06,04,35,986.35
2015,02,06,04,36,986.29
2015,02,06,04,37,986.35
2015,02,06,04,38,986.35
2015,02,06,04,39,986.29
2015,02,06,04,40,986.18
2015,02,06,04,41,986.22
2015,02,06,04,42,986.22
2015,02,06,04,43,986.12
2015,02,06,04,44,986.22
2015,02,06,04,45,986.22
2015,02,06,04,46,986.25
2015,02,06,04,47,986.22
2015,02,06,04,48,986.22
2015,02,06,04,49,986.12
2015,02,06,04,50,986.25
2015,02,06,04,51,986.29
2015,02,06,04,52,986.29
2015,02,06,04,53,986.18
2015,02,06,04,54,986.22
2015,02,06,04,55,986.29
2015,02,06,04,56,986.25
2015,02,06,04,57,986.25
2015,02,06,04,58,986.29
2015,02,06,04,59,986.29
2015,02,06,05,00,986.29
2015,02,06,05,01,986.41
2015,02,06,05,02,986.33
2015,02,06,05,03,986.13
2015,02,06,05,04,986.18
2015,02,06,05,05,986.29
2015,02,06,05,06,986.29
2015,02,06,05,07,986.39
2015,02,06,05,08,986.35
2015,02,06,05,09,986.32
2015,02,06,05,10,986.25
2015,02,06,05,11,986.22
2015,02,06,05,12,986.15
2015,02,06,05,13,986.15
2015,02,06,05,14,986.18
2015,02,06,05,15,986.12
2015,02,06,05,16,985.99
2015,02,06,05,17,986.02
2015,02,06,05,18,986.05
2015,02,06,05,19,986.14
2015,02,06,05,20,986.12
2015,02,06,05,21,986.18
2015,02,06,05,22,986.25
2015,02,06,05,23,986.15
2015,02,06,05,24,986.22
2015,02,06,05,25,986.12
2015,02,06,05,26,986.18
2015,02,06,05,27,986.09
2015,02,06,05,28,986.08
2015,02,06,05,29,986.08
2015,02,06,05,30,986.17
2015,02,06,05,31,986.06
2015,02,06,05,32,986.05
2015,02,06,05,33,986.08
2015,02,06,05,34,986.05
2015,02,06,05,35,985.92
2015,02,06,05,36,985.95
2015,02,06,05,37,985.91
2015,02,06,05,38,985.86
2015,02,06,05,39,985.74
2015,02,06,05,40,985.78
2015,02,06,05,41,985.74
2015,02,06,05,42,985.84
2015,02,06,05,43,985.75
2015,02,06,05,44,985.68
2015,02,06,05,45,985.61
2015,02,06,05,46,985.61
2015,02,06,05,47,985.42
2015,02,06,05,48,985.41
2015,02,06,05,49,985.41
2015,02,06,05,50,985.41
2015,02,06,05,51,985.44
2015,02,06,05,52,985.34
2015,02,06,05,53,985.37
2015,02,06,05,54,985.37
2015,02,06,05,55,985.47
2015,02,06,05,56,985.61
2015,02,06,05,57,985.61
2015,02,06,05,58,985.52
2015,02,06,05,59,985.71
2015,02,06,06,00,985.58
2015,02,06,06,01,985.54
2015,02,06,06,02,985.54
2015,02,06,06,03,985.35
2015,02,06,06,04,985.34
2015,02,06,06,05,985.41
2015,02,06,06,06,985.30
2015,02,06,06,07,985.34
2015,02,06,06,08,985.27
2015,02,06,06,09,985.20
2015,02,06,06,10,985.10
2015,02,06,06,11,985.07
2015,02,06,06,12,985.16
2015,02,06,06,13,985.02
2015,02,06,06,14,985.03
2015,02,06,06,15,985.10
2015,02,06,06,16,985.16
2015,02,06,06,17,985.20
2015,02,06,06,18,985.08
2015,02,06,06,19,985.26
2015,02,06,06,20,985.24
2015,02,06,06,21,985.14
2015,02,06,06,22,985.13
2015,02,06,06,23,985.08
2015,02,06,06,24,985.00
2015,02,06,06,25,985.07
2015,02,06,06,26,984.97
2015,02,06,06,27,984.90
2015,02,06,06,28,984.84
2015,02,06,06,29,984.97
2015,02,06,06,30,985.00
2015,02,06,06,31,985.07
2015,02,06,06,32,984.98
2015,02,06,06,33,984.93
2015,02,06,06,34,984.90
2015,02,06,06,35,984.93
2015,02,06,06,36,984.97
2015,02,06,06,37,984.82
2015,02,06,06,38,984.96
2015,02,06,06,39,984.93
2015,02,06,06,40,985.00
2015,02,06,06,41,985.07
2015,02,06,06,42,985.16
2015,02,06,06,43,984.98
2015,02,06,06,44,984.97
2015,02,06,06,45,984.90
2015,02,06,06,46,984.80
2015,02,06,06,47,984.92
2015,02,06,06,48,984.81
2015,02,06,06,49,984.86
2015,02,06,06,50,984.80
2015,02,06,06,51,984.90
2015,02,06,06,52,984.84
2015,02,06,06,53,984.86
2015,02,06,06,54,984.80
2015,02,06,06,55,984.85
2015,02,06,06,56,984.86
2015,02,06,06,57,984.77
2015,02,06,06,58,984.76
2015,02,06,06,59,984.80
2015,02,06,07,00,984.83
2015,02,06,07,01,984.70
2015,02,06,07,02,984.79
2015,02,06,07,03,984.70
2015,02,06,07,04,984.79
2015,02,06,07,05,984.73
2015,02,06,07,06,984.69
2015,02,06,07,07,984.66
2015,02,06,07,08,984.85
2015,02,06,07,09,984.74
2015,02,06,07,10,984.69
2015,02,06,07,11,984.63
2015,02,06,07,12,984.66
2015,02,06,07,13,984.66
2015,02,06,07,14,984.60
2015,02,06,07,15,984.63
2015,02,06,07,16,984.63
2015,02,06,07,17,984.59
2015,02,06,07,18,984.63
2015,02,06,07,19,984.56
2015,02,06,07,20,984.56
2015,02,06,07,21,984.66
2015,02,06,07,22,984.69
2015,02,06,07,23,984.79
2015,02,06,07,24,984.80
2015,02,06,07,25,984.83
2015,02,06,07,26,984.76
2015,02,06,07,27,984.76
2015,02,06,07,28,984.57
2015,02,06,07,29,984.49
2015,02,06,07,30,984.56
2015,02,06,07,31,984.63
2015,02,06,07,32,984.50
2015,02,06,07,33,984.84
2015,02,06,07,34,984.60
2015,02,06,07,35,984.66
2015,02,06,07,36,984.66
2015,02,06,07,37,984.63
2015,02,06,07,38,984.59
2015,02,06,07,39,984.68
2015,02,06,07,40,984.60
2015,02,06,07,41,984.75
2015,02,06,07,42,984.73
2015,02,06,07,43,984.64
2015,02,06,07,44,984.72
2015,02,06,07,45,984.79
2015,02,06,07,46,984.89
2015,02,06,07,47,984.80
2015,02,06,07,48,984.80
2015,02,06,07,49,984.80
2015,02,06,07,50,984.70
2015,02,06,07,51,984.92
2015,02,06,07,52,984.97
2015,02,06,07,53,984.82
2015,02,06,07,54,984.70
2015,02,06,07,55,984.82
2015,02,06,07,56,984.86
2015,02,06,07,57,984.74
2015,02,06,07,58,984.88
2015,02,06,07,59,984.93
2015,02,06,08,00,985.09
2015,02,06,08,01,985.03
2015,02,06,08,02,985.00
2015,02,06,08,03,985.06
2015,02,06,08,04,985.13
2015,02,06,08,05,985.17
2015,02,06,08,06,985.17
2015,02,06,08,07,985.20
2015,02,06,08,08,985.20
2015,02,06,08,09,985.11
2015,02,06,08,10,985.17
2015,02,06,08,11,985.24
2015,02,06,08,12,985.29
2015,02,06,08,13,985.24
2015,02,06,08,14,985.27
2015,02,06,08,15,985.50
2015,02,06,08,16,985.31
2015,02,06,08,17,985.30
2015,02,06,08,18,985.27
2015,02,06,08,19,985.36
2015,02,06,08,20,985.30
2015,02,06,08,21,985.41
2015,02,06,08,22,985.37
2015,02,06,08,23,985.47
2015,02,06,08,24,985.62
2015,02,06,08,25,985.45
2015,02,06,08,26,985.50
2015,02,06,08,27,985.60
2015,02,06,08,28,985.48
2015,02,06,08,29,985.41
2015,02,06,08,30,985.37
2015,02,06,08,31,985.41
2015,02,06,08,32,985.44
2015,02,06,08,33,985.37
2015,02,06,08,34,985.60
2015,02,06,08,35,985.54
2015,02,06,08,36,985.51
2015,02,06,08,37,985.60
2015,02,06,08,38,985.61
2015,02,06,08,39,985.64
2015,02,06,08,40,985.84
2015,02,06,08,41,985.88
2015,02,06,08,42,985.88
2015,02,06,08,43,985.81
2015,02,06,08,44,985.91
2015,02,06,08,45,985.97
2015,02,06,08,46,985.91
2015,02,06,08,47,985.95
2015,02,06,08,48,986.04
2015,02,06,08,49,986.05
2015,02,06,08,50,986.08
2015,02,06,08,51,986.21
2015,02,06,08,52,986.12
2015,02,06,08,53,986.18
2015,02,06,08,54,986.18
2015,02,06,08,55,986.03
2015,02,06,08,56,986.02
2015,02,06,08,57,985.87
2015,02,06,08,58,985.81
2015,02,06,08,59,985.72
2015,02,06,09,00,985.77
2015,02,06,09,01,985.88
2015,02,06,09,02,985.91
2015,02,06,09,03,985.95
2015,02,06,09,04,986.01
2015,02,06,09,05,986.05
2015,02,06,09,06,985.96
2015,02,06,09,07,985.98
2015,02,06,09,08,986.11
2015,02,06,09,09,986.15
2015,02,06,09,10,986.18
2015,02,06,09,11,986.25
2015,02,06,09,12,986.38
2015,02,06,09,13,986.42
2015,02,06,09,14,986.42
2015,02,06,09,15,986.36
2015,02,06,09,16,986.51
2015,02,06,09,17,986.49
2015,02,06,09,18,986.52
2015,02,06,09,19,986.52
2015,02,06,09,20,986.52
2015,02,06,09,21,986.65
2015,02,06,09,22,986.57
2015,02,06,09,23,986.66
2015,02,06,09,24,986.51
2015,02,06,09,25,986.61
2015,02,06,09,26,986.62
2015,02,06,09,27,986.68
2015,02,06,09,28,986.73
2015,02,06,09,29,986.67
2015,02,06,09,30,986.60
2015,02,06,09,31,986.62
2015,02,06,09,32,986.59
2015,02,06,09,33,986.65
2015,02,06,09,34,986.85
2015,02,06,09,35,986.70
2015,02,06,09,36,986.73
2015,02,06,09,37,986.79
2015,02,06,09,38,986.67
2015,02,06,09,39,986.69
2015,02,06,09,40,986.69
2015,02,06,09,41,986.78
2015,02,06,09,42,986.94
2015,02,06,09,43,986.91
2015,02,06,09,44,986.90
2015,02,06,09,45,986.93
2015,02,06,09,46,986.93
2015,02,06,09,47,986.77
2015,02,06,09,48,986.89
2015,02,06,09,49,986.83
2015,02,06,09,50,986.99
2015,02,06,09,51,986.84
2015,02,06,09,52,986.76
2015,02,06,09,53,986.76
2015,02,06,09,54,986.79
2015,02,06,09,55,986.73
2015,02,06,09,56,986.83
2015,02,06,09,57,986.74
2015,02,06,09,58,986.82
2015,02,06,09,59,986.76
2015,02,06,10,00,986.69
2015,02,06,10,01,986.76
2015,02,06,10,02,986.79
2015,02,06,10,03,986.79
2015,02,06,10,04,986.83
2015,02,06,10,05,986.77
2015,02,06,10,06,986.76
2015,02,06,10,07,986.76
2015,02,06,10,08,986.85
2015,02,06,10,09,986.86
2015,02,06,10,10,986.90
2015,02,06,10,11,986.80
2015,02,06,10,12,986.79
2015,02,06,10,13,986.76
2015,02,06,10,14,986.82
2015,02,06,10,15,986.89
2015,02,06,10,16,986.80
2015,02,06,10,17,986.73
2015,02,06,10,18,986.73
2015,02,06,10,19,986.78
2015,02,06,10,20,986.86
2015,02,06,10,21,986.71
2015,02,06,10,22,986.78
2015,02,06,10,23,986.76
2015,02,06,10,24,986.89
2015,02,06,10,25,986.90
2015,02,06,10,26,986.96
2015,02,06,10,27,986.93
2015,02,06,10,28,986.96
2015,02,06,10,29,986.90
2015,02,06,10,30,986.90
2015,02,06,10,31,986.90
2015,02,06,10,32,986.83
2015,02,06,10,33,986.86
2015,02,06,10,34,986.86
2015,02,06,10,35,986.86
2015,02,06,10,36,986.86
2015,02,06,10,37,986.95
2015,02,06,10,38,987.03
2015,02,06,10,39,986.96
2015,02,06,10,40,986.96
2015,02,06,10,41,987.09
2015,02,06,10,42,987.04
2015,02,06,10,43,987.10
2015,02,06,10,44,987.06
2015,02,06,10,45,986.97
2015,02,06,10,46,986.96
2015,02,06,10,47,986.90
2015,02,06,10,48,987.05
2015,02,06,10,49,986.88
2015,02,06,10,50,986.83
2015,02,06,10,51,986.79
2015,02,06,10,52,986.85
2015,02,06,10,53,986.74
2015,02,06,10,54,986.69
2015,02,06,10,55,986.69
2015,02,06,10,56,986.66
2015,02,06,10,57,986.84
2015,02,06,10,58,986.86
2015,02,06,10,59,986.92
2015,02,06,11,00,986.93
2015,02,06,11,01,986.87
2015,02,06,11,02,986.90
2015,02,06,11,03,986.90
2015,02,06,11,04,986.93
2015,02,06,11,05,987.02
2015,02,06,11,06,986.94
2015,02,06,11,07,986.84
2015,02,06,11,08,986.92
2015,02,06,11,09,986.93
2015,02,06,11,10,986.87
2015,02,06,11,11,986.90
2015,02,06,11,12,986.93
2015,02,06,11,13,987.02
2015,02,06,11,14,987.06
2015,02,06,11,15,987.03
2015,02,06,11,16,987.09
2015,02,06,11,17,987.19
2015,02,06,11,18,987.17
2015,02,06,11,19,987.17
2015,02,06,11,20,987.22
2015,02,06,11,21,987.27
2015,02,06,11,22,987.21
2015,02,06,11,23,987.10
2015,02,06,11,24,987.19
2015,02,06,11,25,987.23
2015,02,06,11,26,987.33
2015,02,06,11,27,987.39
2015,02,06,11,28,987.37
2015,02,06,11,29,987.44
2015,02,06,11,30,987.51
2015,02,06,11,31,987.54
2015,02,06,11,32,987.48
2015,02,06,11,33,987.53
2015,02,06,11,34,987.57
2015,02,06,11,35,987.52
2015,02,06,11,36,987.47
2015,02,06,11,37,987.41
2015,02,06,11,38,987.37
2015,02,06,11,39,987.37
2015,02,06,11,40,987.40
2015,02,06,11,41,987.43
2015,02,06,11,42,987.50
2015,02,06,11,43,987.47
2015,02,06,11,44,987.51
2015,02,06,11,45,987.47
2015,02,06,11,46,987.53
2015,02,06,11,47,987.54
2015,02,06,11,48,987.54
2015,02,06,11,49,987.47
2015,02,06,11,50,987.51
2015,02,06,11,51,987.41
2015,02,06,11,52,987.40
2015,02,06,11,53,987.47
2015,02,06,11,54,987.44
2015,02,06,11,55,987.44
2015,02,06,11,56,987.53
2015,02,06,11,57,987.51
2015,02,06,11,58,987.51
2015,02,06,11,59,987.47
2015,02,06,12,00,987.51
2015,02,06,12,01,987.47
2015,02,06,12,02,987.51
2015,02,06,12,03,987.57
2015,02,06,12,04,987.48
2015,02,06,12,05,987.56
2015,02,06,12,06,987.64
2015,02,06,12,07,987.70
2015,02,06,12,08,987.65
2015,02,06,12,09,987.58
2015,02,06,12,10,987.57
2015,02,06,12,11,987.57
2015,02,06,12,12,987.54
2015,02,06,12,13,987.57
2015,02,06,12,14,987.51
2015,02,06,12,15,987.54
2015,02,06,12,16,987.54
2015,02,06,12,17,987.54
2015,02,06,12,18,987.70
2015,02,06,12,19,987.67
2015,02,06,12,20,987.73
2015,02,06,12,21,987.87
2015,02,06,12,22,987.91
2015,02,06,12,23,987.95
2015,02,06,12,24,987.88
2015,02,06,12,25,987.88
2015,02,06,12,26,987.94
2015,02,06,12,27,987.98
2015,02,06,12,28,988.01
2015,02,06,12,29,988.07
2015,02,06,12,30,988.05
2015,02,06,12,31,987.92
2015,02,06,12,32,987.82
2015,02,06,12,33,987.78
2015,02,06,12,34,987.81
2015,02,06,12,35,987.78
2015,02,06,12,36,987.83
2015,02,06,12,37,987.81
2015,02,06,12,38,987.78
2015,02,06,12,39,987.78
2015,02,06,12,40,987.78
2015,02,06,12,41,987.81
2015,02,06,12,42,987.72
2015,02,06,12,43,987.65
2015,02,06,12,44,987.73
2015,02,06,12,45,987.67
2015,02,06,12,46,987.77
2015,02,06,12,47,987.81
2015,02,06,12,48,987.84
2015,02,06,12,49,987.88
2015,02,06,12,50,987.84
2015,02,06,12,51,987.79
2015,02,06,12,52,987.81
2015,02,06,12,53,987.87
2015,02,06,12,54,987.88
2015,02,06,12,55,987.84
2015,02,06,12,56,987.81
2015,02,06,12,57,987.88
2015,02,06,12,58,987.94
2015,02,06,12,59,987.95
2015,02,06,13,00,987.91
2015,02,06,13,01,987.97
2015,02,06,13,02,987.92
2015,02,06,13,03,987.91
2015,02,06,13,04,987.85
2015,02,06,13,05,987.79
2015,02,06,13,06,987.71
2015,02,06,13,07,987.74
2015,02,06,13,08,987.80
2015,02,06,13,09,987.78
2015,02,06,13,10,987.90
2015,02,06,13,11,987.97
2015,02,06,13,12,987.95
2015,02,06,13,13,987.98
2015,02,06,13,14,987.98
2015,02,06,13,15,988.01
2015,02,06,13,16,987.96
2015,02,06,13,17,987.89
2015,02,06,13,18,987.91
2015,02,06,13,19,987.95
2015,02,06,13,20,987.98
2015,02,06,13,21,988.01
2015,02,06,13,22,987.96
2015,02,06,13,23,988.00
2015,02,06,13,24,987.98
2015,02,06,13,25,987.98
2015,02,06,13,26,988.07
2015,02,06,13,27,988.11
2015,02,06,13,28,988.11
2015,02,06,13,29,988.02
2015,02,06,13,30,988.10
2015,02,06,13,31,988.17
2015,02,06,13,32,988.18
2015,02,06,13,33,988.22
2015,02,06,13,34,988.22
2015,02,06,13,35,988.22
2015,02,06,13,36,988.18
2015,02,06,13,37,988.22
2015,02,06,13,38,988.25
2015,02,06,13,39,988.22
2015,02,06,13,40,988.25
2015,02,06,13,41,988.28
2015,02,06,13,42,988.28
2015,02,06,13,43,988.34
2015,02,06,13,44,988.35
2015,02,06,13,45,988.35
2015,02,06,13,46,988.39
2015,02,06,13,47,988.33
2015,02,06,13,48,988.38
2015,02,06,13,49,988.39
2015,02,06,13,50,988.39
2015,02,06,13,51,988.39
2015,02,06,13,52,988.39
2015,02,06,13,53,988.39
2015,02,06,13,54,988.42
2015,02,06,13,55,988.39
2015,02,06,13,56,988.39
2015,02,06,13,57,988.42
2015,02,06,13,58,988.48
2015,02,06,13,59,988.52
2015,02,06,14,00,988.49
2015,02,06,14,01,988.45
2015,02,06,14,02,988.48
2015,02,06,14,03,988.61
2015,02,06,14,04,988.71
2015,02,06,14,05,988.76
2015,02,06,14,06,988.64
2015,02,06,14,07,988.62
2015,02,06,14,08,988.71
2015,02,06,14,09,988.72
2015,02,06,14,10,988.69
2015,02,06,14,11,988.72
2015,02,06,14,12,988.78
2015,02,06,14,13,988.79
2015,02,06,14,14,988.79
2015,02,06,14,15,988.83
2015,02,06,14,16,988.83
2015,02,06,14,17,988.83
2015,02,06,14,18,988.86
2015,02,06,14,19,988.83
2015,02,06,14,20,988.83
2015,02,06,14,21,988.79
2015,02,06,14,22,988.79
2015,02,06,14,23,988.76
2015,02,06,14,24,988.72
2015,02,06,14,25,988.82
2015,02,06,14,26,988.83
2015,02,06,14,27,988.92
2015,02,06,14,28,988.93
2015,02,06,14,29,988.89
2015,02,06,14,30,988.99
2015,02,06,14,31,988.96
2015,02,06,14,32,988.96
2015,02,06,14,33,989.00
2015,02,06,14,34,989.05
2015,02,06,14,35,989.03
2015,02,06,14,36,989.00
2015,02,06,14,37,989.00
2015,02,06,14,38,989.05
2015,02,06,14,39,989.03
2015,02,06,14,40,989.00
2015,02,06,14,41,989.03
2015,02,06,14,42,989.06
2015,02,06,14,43,989.06
2015,02,06,14,44,989.10
2015,02,06,14,45,989.04
2015,02,06,14,46,989.06
2015,02,06,14,47,989.01
2015,02,06,14,48,989.03
2015,02,06,14,49,989.09
2015,02,06,14,50,989.10
2015,02,06,14,51,989.04
2015,02,06,14,52,989.00
2015,02,06,14,53,989.03
2015,02,06,14,54,989.15
2015,02,06,14,55,989.26
2015,02,06,14,56,989.30
2015,02,06,14,57,989.30
2015,02,06,14,58,989.27
2015,02,06,14,59,989.32
2015,02,06,15,00,989.30
2015,02,06,15,01,989.33
2015,02,06,15,02,989.36
2015,02,06,15,03,989.33
2015,02,06,15,04,989.37
2015,02,06,15,05,989.31
2015,02,06,15,06,989.30
2015,02,06,15,07,989.33
2015,02,06,15,08,989.37
2015,02,06,15,09,989.33
2015,02,06,15,10,989.36
2015,02,06,15,11,989.46
2015,02,06,15,12,989.53
2015,02,06,15,13,989.48
2015,02,06,15,14,989.47
2015,02,06,15,15,989.50
2015,02,06,15,16,989.41
2015,02,06,15,17,989.28
2015,02,06,15,18,989.32
2015,02,06,15,19,989.39
2015,02,06,15,20,989.53
2015,02,06,15,21,989.41
2015,02,06,15,22,989.37
2015,02,06,15,23,989.40
2015,02,06,15,24,989.34
2015,02,06,15,25,989.33
2015,02,06,15,26,989.28
2015,02,06,15,27,989.27
2015,02,06,15,28,989.39
2015,02,06,15,29,989.37
2015,02,06,15,30,989.33
2015,02,06,15,31,989.28
2015,02,06,15,32,989.36
2015,02,06,15,33,989.40
2015,02,06,15,34,989.34
2015,02,06,15,35,989.39
2015,02,06,15,36,989.31
2015,02,06,15,37,989.36
2015,02,06,15,38,989.46
2015,02,06,15,39,989.53
2015,02,06,15,40,989.51
2015,02,06,15,41,989.56
2015,02,06,15,42,989.60
2015,02,06,15,43,989.64
2015,02,06,15,44,989.58
2015,02,06,15,45,989.54
2015,02,06,15,46,989.57
2015,02,06,15,47,989.57
2015,02,06,15,48,989.60
2015,02,06,15,49,989.64
2015,02,06,15,50,989.67
2015,02,06,15,51,989.61
2015,02,06,15,52,989.57
2015,02,06,15,53,989.57
2015,02,06,15,54,989.60
2015,02,06,15,55,989.60
2015,02,06,15,56,989.60
2015,02,06,15,57,989.66
2015,02,06,15,58,989.64
2015,02,06,15,59,989.64
2015,02,06,16,00,989.67
2015,02,06,16,01,989.61
2015,02,06,16,02,989.70
2015,02,06,16,03,989.76
2015,02,06,16,04,989.81
2015,02,06,16,05,989.77
2015,02,06,16,06,989.72
2015,02,06,16,07,989.77
2015,02,06,16,08,989.81
2015,02,06,16,09,989.84
2015,02,06,16,10,989.90
2015,02,06,16,11,989.78
2015,02,06,16,12,989.77
2015,02,06,16,13,989.74
2015,02,06,16,14,989.83
2015,02,06,16,15,989.75
2015,02,06,16,16,989.74
2015,02,06,16,17,989.71
2015,02,06,16,18,989.58
2015,02,06,16,19,989.51
2015,02,06,16,20,989.59
2015,02,06,16,21,989.55
2015,02,06,16,22,989.51
2015,02,06,16,23,989.41
2015,02,06,16,24,989.58
2015,02,06,16,25,989.55
2015,02,06,16,26,989.48
2015,02,06,16,27,989.38
2015,02,06,16,28,989.34
2015,02,06,16,29,989.37
2015,02,06,16,30,989.37
2015,02,06,16,31,989.40
2015,02,06,16,32,989.37
2015,02,06,16,33,989.34
2015,02,06,16,34,989.30
2015,02,06,16,35,989.33
2015,02,06,16,36,989.28
2015,02,06,16,37,989.30
2015,02,06,16,38,989.30
2015,02,06,16,39,989.33